If you wish to contribute or participate in the discussions about articles you are invited to join SKYbrary as a registered user

 Actions

Annette Island Airport

From SKYbrary Wiki

PANT
Airport
ICAO: PANT – IATA: ANN
Summary
Name Annette Island Airport
Region North America
Territory Alaska US.gif
Location Annette Island, Alaska
Serving Annette Island
Elevation 36.271 m
119 ft
119 ft36.271 m
Type medium airport
Coordinates 55° 2' 32.77" N, 131° 34' 20.04" W
Runways
Designator Length Width Surface ROPS
2/20 1740 m5,708.661 ft
46 m150.919 ft
GVL /
12/30 2284 m7,493.438 ft
46 m150.919 ft
ASP /


METAR
Observation PANT 181753Z AUTO 32011G20KT 10SM OVC026 11/09 A2957 RMK RAE1654 SLP013 P0000 60012 T01110089 10144 20100 53020 TSNO VIA AUTODIAL
Station Annette, Annette Island Airport
Date/Time 18 August 2019 17:53:00
Wind direction 320°
Wind speed 11 kts
Lowest cloud amount overcast
Temperature 11.1°C
Dew point 8.9°C
Humidity 86%
QNH hPa
Weather condition n/a

Maps

Terrain

Loading map...

Airport Layout

Loading map...


Accidents & Serious Incidents at or in vicinity of PANT

None on SKYbrary